Regional Weather Roundup
Issued by NWS San Diego, CA

Home | Current Version | Previous Version | Text Only | Print | Product List | Glossary On
Versions: 1 2 3 4 5 6 7 8 9 10 11 12 13 14 15 16 17 18 19 20 21 22 23 24 25 26 27 28 29 30 31 32 33 34 35 36 37 38 39 40 41 42 43 44 45 46 47 48 49 50
000
ASUS46 KSGX 240910
RWRSGX

SAN DIEGO HOURLY WEATHER ROUNDUP
NATIONAL WEATHER SERVICE SAN DIEGO CA
200 AM PDT FRI OCT 24 2014

NOTE: "FAIR" INDICATES FEW OR NO CLOUDS BELOW 12,000 FEET WITH NO
SIGNIFICANT WEATHER AND/OR OBSTRUCTIONS TO VISIBILITY.

CAZ042-043-060-061-PZZ750-775-241000-

GREATER SAN DIEGO AREA

CITY           SKY/WX    TMP DP  RH WIND       PRES   REMARKS
LINDBERGH FLD  CLEAR     65  55  70 CALM      29.97R
POINT LOMA       N/A     67  63  86 NW6         N/A
NATIONAL CITY    N/A     63  59  86 CALM      29.96S
CHULA VISTA      N/A     60  56  85 CALM      29.90R
IMPERIAL BEACH CLEAR     54  53  97 CALM      29.96R
BROWN FIELD    CLEAR     65  47  52 SE5       29.96S
MIRAMAR MCAS   CLEAR     63  44  50 NE5       29.96S
MONTGOMERY FLD CLEAR     64  54  69 CALM      29.96S

$$

NORTH SAN DIEGO COUNTY

CITY           SKY/WX    TMP DP  RH WIND       PRES   REMARKS
CAMP PENDLETON CLEAR     54  44  69 NE3       29.96S
OCEANSIDE AP   CLEAR     51  49  92 CALM      29.96R
OCEANSIDE HBR    N/A     60  54  79 E5        29.98S
CARLSBAD       CLEAR     62  49  62 CALM      29.95S
DEL MAR          N/A     64  63  96 CALM      29.98S
LA JOLLA SCRIP   N/A     67  65  94 CALM      29.93S
FALLBROOK        N/A     67  40  36 CALM      29.96R
ESCONDIDO        N/A     61  46  57 CALM      29.99R
SAN MARCOS       N/A     66  49  54 CALM      29.94S
POWAY            N/A     56  44  65 CALM      29.98S

$$

EAST SAN DIEGO COUNTY

CITY           SKY/WX    TMP DP  RH WIND       PRES   REMARKS
RAMONA         CLEAR     54  38  54 CALM      30.00S
SANTEE LAKES     N/A     59  47  63 CALM      29.98S
LA MESA          N/A     67  52  56 CALM      29.90S
JAMUL            N/A     62  43  50 CALM      29.95S
DESCANSO N       N/A     57  34  42 E3        29.89S
MT. LAGUNA OBS   N/A     64  18  17 E2        29.80S
CAMPO            N/A     51  34  52 NE6       30.04F

$$

ORANGE COUNTY AND THE LOS ANGELES BASIN

CITY           SKY/WX    TMP DP  RH WIND       PRES   REMARKS
JOHN WAYNE AP  MOCLDY    66  55  68 CALM      29.96S
LAKE FOREST FR   N/A     66  37  34 CALM      29.84F
SANTA ANA        N/A     60  55  84 CALM      29.92S
HUNTINGTON BCH   N/A     57  56  95 CALM      29.99S
LOS ALAMITOS   MOCLDY    60  59  97 N2        29.97R
FULLERTON        N/A     62  55  77 CALM      29.96S
LONG BEACH     CLEAR     63  59  87 CALM      29.96S
L.A. AP        PTCLDY    66  66 100 CALM      29.97S FOG
L.A. DOWNTOWN  CLEAR     63  57  81 CALM      29.96S

$$

THE INLAND EMPIRE

CITY           SKY/WX    TMP DP  RH WIND       PRES   REMARKS
CORONA         CLEAR     51  45  80 CALM      29.99R
CHINO          CLEAR     60  51  72 CALM      29.99S
ONTARIO        CLEAR     65  44  46 NE5       29.98F
RIVERSIDE AP   CLEAR     62  48  60 E5        29.99R
RIV CYN CREST    N/A     66  52  61 CALM      29.96S
MORENO VALLEY    N/A     66  43  43 CALM      29.20R
MARCH ARB      CLEAR     55  38  52 CALM      30.01S
HORSETHIEF CYN   N/A     65  36  34 CALM      30.00S
PERRIS           N/A     63  47  55 CALM      29.98R
MENIFEE          N/A     59  49  71 CALM      30.06R
HEMET EAST       N/A     69  28  20 CALM      29.96S
FRENCH VALLEY  FAIR      57  34  41 CALM      30.01S
TEMECULA         N/A     59  45  59 CALM      29.97R

$$

SAN BERNARDINO AND RIVERSIDE COUNTY MOUNTAINS

CITY           SKY/WX    TMP DP  RH WIND       PRES   REMARKS
BIG BEAR AP    CLEAR     34  19  55 CALM      30.31S
ANGELUS OAKS     N/A     55  28  35 CALM      29.95S
PINE COVE        N/A     61  29  30 CALM      29.90S

$$

SOUTHERN DESERT INCLUDING THE COACHELLA VALLEY

CITY           SKY/WX    TMP DP  RH WIND       PRES   REMARKS
PALM SPRINGS   CLEAR     75  34  22 NW9       29.96F
THOUSAND PALMS   N/A     70  43  37 W2        29.91F
PALM DESERT      N/A     69  46  43 CALM        N/A
THERMAL        CLEAR     59  49  69 CALM      29.90F
BLYTHE         CLEAR     68  41  37 N6        29.94S
IMPERIAL AP    CLEAR     67  47  48 W5        29.91S
EL CENTRO NAS  CLEAR     68  40  35 W6        29.91F
YUMA AZ        CLEAR     72  46  39 CALM      29.92F

$$

UPPER DESERT

CITY           SKY/WX    TMP DP  RH WIND       PRES   REMARKS
VICTORVILLE AP CLEAR     61  27  27 CALM      30.08S
HESPERIA         N/A     61  29  29 CALM      30.09S
APPLE VALLEY     N/A     49  36  61 CALM      30.14S
PALMDALE       CLEAR     53  28  38 S8        30.05F
LANCASTER      CLEAR     58  24  27 CALM      30.05S
EDWARDS AFB    CLEAR     52  22  30 CALM      30.03S
DAGGETT        CLEAR     61  33  35 NW6       30.02S
29 PALMS N     CLEAR     60  37  42 W3        30.10S
NEEDLES        CLEAR     69  39  33 N5        29.98S

$$

REGIONAL REPORTS

CITY           SKY/WX    TMP DP  RH WIND       PRES   REMARKS
SANTA BARBARA  CLEAR     56  49  77 CALM      29.95F
SANDBERG       CLEAR     65  23  20 S14       30.15S
MT. WILSON       N/A     61  19  20 MISG        N/A
LAS VEGAS NV   CLEAR     68  36  30 SW8       30.01S
PHOENIX AZ     CLEAR     73  51  46 E3        29.99R
TIJUANA          N/A    N/A N/A N/A MISG        N/A

$$

OFFSHORE ISLANDS

CITY           SKY/WX    TMP DP  RH WIND       PRES   REMARKS
CATALINA ARPT  CLEAR     73  21  14 CALM      30.02R

$$

MARINE AND OFFSHORE BUOY REPORTS

STATION/POSITION SKY/WX   TEMP    WIND        PRES    SWELL
                          AIR SEA DIR/SP/G            HT/PER/DIR
                          (F)     (DEG/KT/KT) (MB)    (FT/S/D)
TANNER BANKS               66 68  320/ 12/ 14 1014.4F   8/320/13
S CLEMENTE BASIN           69 71  290/  6/  8 1014.3S   5/290/12
SAN NICOLAS IS.               66                N/A     7/300/14
SO. S. ROSA ISLA           64 69  320/ 14/ 17 1013.7F   7/13
W. S. BARBARA CH           62 63  320/ 16/ 17 1013.5F   8/310/13
M. S. BARBARA CH           66     210/  6       N/A
S. MONICA BASIN            67 71  190/  2/  2 1014.2F   3/260/11
S PEDRO CHANNEL               70                N/A     2/270/12
DANA POINT                    70                N/A     2/200/17
CMP PENDLETON NS              70                N/A     2/220/17
OCEANSIDE OFFSHR              71                N/A     2/200/17
TORREY PINES OTR              72                N/A     2/210/17
LA JOLLA 1                 68 71     CALM     1014.5S
MISSION BAY BUOY              72                N/A     3/270/13
SAN DIEGO BAY                 74              1014.9F
POINT LOMA SOUTH              72                N/A     3/280/13

$$




USA.gov is the U.S. government's official web portal to all federal, state and local government web resources and services.